Location: Ponte Samoggia
(44.5667°N, 11.1333°E)
Time: 23:11:43
(UTC+00:00)

Cosmos 1140 Rocket - Pass Details

Date: 26 May 2022
Orbit: 743 x 767 km, 74.1° (Epoch: 26 June)

Event Time Altitude Azimuth Distance (km) Brightness Sun altitude
Rises 02:56:49 0° 333° (NNW) 3,246 6.9 -6.8°
Reaches altitude 10° 02:59:16 10° 328° (NNW) 2,316 6.1 -6.4°
Maximum altitude 03:04:16 46° 256° (WSW) 1,019 3.8 -5.7°
Drops below altitude 10° 03:09:14 10° 184° (S) 2,294 5.6 -5.0°
Sets 03:11:40 0° 178° (S) 3,213 6.4 -4.7°
